User: anonymous   Login
Location: El Corozo
(10.5833°N, 66.9667°W)
Time: 15:10:01
(UTC+00:00)
Language:

Cosmos 1072 Rocket - Orbit

View from above orbital plane
View from above orbital plane
View from above satellite
View from above satellite

Ground track
Ground track

The orbit data is extracted from the following two-line orbital elements,

1 11239U 79003B   24206.77837125  .00000158  00000-0  14647-3 0  9998
2 11239  82.9411 322.5413 0040346 346.9459 171.5056 13.76002043284386
Epoch (UTC): 24 July 2024 18:40:51
Eccentricity: 0.0040346
inclination: 82.9411°
perigee height: 948 km
apogee height: 1008 km
right ascension of ascending node: 322.5413°
argument of perigee: 346.9459°
revolutions per day: 13.76002043
mean anomaly at epoch: 171.5056°
orbit number at epoch: 28438

The dashed part of the orbit path shows where the satellite is in the earth's shadow,  

DLR